Weather History for KPOF - November, 2012

Change the Weather History Date:

Thursday, November 8, 2012

  Actual Average (KCGI) Record (KCGI)
Temperature  
Mean Temperature 44 °F 50 °F  
Max Temperature 57 °F 61 °F 81 °F (2005)
Min Temperature 30 °F 39 °F 15 °F (1991)
Degree Days  
Heating Degree Days 22 15  
Month to date heating degree days 111  
Since 1 July heating degree days 414  
Cooling Degree Days 0 0  
Month to date cooling degree days 0  
Year to date cooling degree days 1451  
Moisture  
Dew Point 35 °F    
Average Humidity 71    
Maximum Humidity 89    
Minimum Humidity 47    
Precipitation  
Precipitation 0.00 in 0.13 in 1.53 in (2000)
Month to date precipitation 1.06  
Year to date precipitation 39.18  
Sea Level Pressure  
Sea Level Pressure 30.20 in    
Wind  
Wind Speed 2 mph (South)    
Max Wind Speed 9 mph    
Max Gust Speed -    
Visibility 10 miles    
Events      
T = Trace of Precipitation, MM = Missing Value Source: NWS Daily Summary

Daily Weather History Graph

Daily Weather History Graph

Search for Another Location

Airport or City:

Trip Planner

Search our weather history database for the weather conditions in past years. The results will help you decide how hot, cold, wet, or windy it might be!

Date:

Astronomy

Nov. 08, 2012 Rise Set
Actual Time 6:32 AM CST 4:57 PM CST
Civil Twilight 6:05 AM CST 5:24 PM CST
Nautical Twilight 5:34 AM CST 5:55 PM CST
Astronomical Twilight 5:04 AM CST 6:25 PM CST
Moon 12:36 AM CST (11/8) 1:30 PM CST (11/8)
Length of Visible Light 11h 18m
Length of Day
10h 24m
Waning Crescent, 32% of the Moon is Illuminated
Nov 8
Waning Crescent
Nov 13
New
Nov 20
First Quarter
Nov 28
Full
Dec 6
Last Quarter

Hourly Weather History & Observations

Time (CST) Temp. Windchill Dew Point Humidity Pressure Visibility Wind Dir Wind Speed Gust Speed Precip Events Conditions
12:53 AM 34.0 °F - 30.9 °F 89% 30.20 in 10.0 mi Calm Calm - N/A   Clear
2:53 AM 32.0 °F - 28.9 °F 88% 30.22 in 10.0 mi Calm Calm - N/A   Clear
3:53 AM 30.9 °F - 28.0 °F 89% 30.22 in 10.0 mi Calm Calm - N/A   Clear
4:53 AM 30.9 °F - 28.0 °F 89% 30.25 in 10.0 mi Calm Calm - N/A   Clear
5:53 AM 30.9 °F - 27.0 °F 85% 30.24 in 9.0 mi Calm Calm - N/A   Clear
6:53 AM 30.9 °F - 27.0 °F 85% 30.26 in 9.0 mi Calm Calm - N/A   Clear
7:53 AM 36.0 °F - 30.9 °F 82% 30.28 in 9.0 mi Calm Calm - N/A   Clear
8:53 AM 42.1 °F - 37.0 °F 82% 30.29 in 8.0 mi Calm Calm - N/A   Clear
9:53 AM 48.0 °F - 39.9 °F 74% 30.29 in 7.0 mi South 4.6 mph - N/A   Clear
10:53 AM 52.0 °F - 39.0 °F 61% 30.27 in 9.0 mi SSW 8.1 mph - N/A   Clear
11:53 AM 54.0 °F - 39.0 °F 57% 30.24 in 10.0 mi SSW 6.9 mph - N/A   Clear
12:53 PM 55.9 °F - 37.9 °F 51% 30.20 in 10.0 mi Variable 6.9 mph - N/A   Clear
1:53 PM 57.9 °F - 39.0 °F 49% 30.18 in 10.0 mi South 9.2 mph - N/A   Clear
2:53 PM 57.9 °F - 37.9 °F 47% 30.17 in 10.0 mi South 5.8 mph - N/A   Clear
3:53 PM 57.9 °F - 37.9 °F 47% 30.16 in 10.0 mi South 6.9 mph - N/A   Clear
4:53 PM 54.0 °F - 37.9 °F 55% 30.16 in 10.0 mi South 5.8 mph - N/A   Clear
5:53 PM 51.1 °F - 37.0 °F 59% 30.17 in 10.0 mi South 4.6 mph - N/A   Clear
6:53 PM 48.0 °F - 37.9 °F 68% 30.16 in 10.0 mi SSE 5.8 mph - N/A   Clear
7:53 PM 46.9 °F - 37.0 °F 68% 30.15 in 10.0 mi SSE 5.8 mph - N/A   Clear
8:53 PM 46.0 °F 43.9 °F 37.0 °F 71% 30.15 in 10.0 mi SSE 4.6 mph - N/A   Clear
9:53 PM 45.0 °F - 37.0 °F 74% 30.14 in 10.0 mi Calm Calm - N/A   Clear
10:53 PM 39.9 °F - 36.0 °F 86% 30.14 in 10.0 mi Calm Calm - N/A   Clear
11:53 PM 41.0 °F - 37.0 °F 86% 30.15 in 8.0 mi Calm Calm - N/A   Clear